Lexington Weather

Lexington, Massachusetts, USA

28°F
12/12/2019 4:12pm 
  • Lexington Conditions: Partly cloudy
  • Temperature: 28.0°F / -2.2°CColder 1.5°F than last hour.
  • Dew Point: 19.9°FDecreased 0.4°Fsince last hour.
  • Relative Humidity: 71%Increased 3.0% since last hour.
  • Wind: Wind from WSW WSW 1 mph, 10-min avg: 1 mph, gust: 4 mph
  • Barometer: 30.65 in Steady
  • Visibility: 10 miles
  • Snow Today: 0.0 in
  •   

Regional Weather Roundup
for Boston / Norton, MA

        
000
ASUS41 KBOX 101710
RWRBOX

REGIONAL WEATHER ROUNDUP
NATIONAL WEATHER SERVICE BOSTON/NORTON MA
1200 PM EST TUE DEC 10 2019

NOTE:  "FAIR" INDICATES FEW OR NO CLOUDS BELOW 12,000 FEET WITH NO 
SIGNIFICANT WEATHER AND/OR OBSTRUCTIONS TO VISIBILITY.

MAZALL-101800-
EASTERN MASSACHUSETTS
  
CITY           SKY/WX    TMP DP  RH WIND       PRES   REMARKS
BOSTON         FAIR      63  52  67 SW17G23   29.70F                  
BEVERLY        FAIR      61  52  72 SW14      29.68F                  
LAWRENCE       CLOUDY    57  51  80 SW10      29.70F                  
BEDFORD        PTSUNNY   60  51  72 SW13      29.69F                  
BLUE HILL        N/A     58  52  80 SW15G24   29.70F                  
NORWOOD        FAIR      64  52  64 SW13      29.71F                  
MARSHFIELD     NOT AVBL                                               
PLYMOUTH       PTSUNNY   58  54  86 SW14G22   29.73F                  
TAUNTON        PTSUNNY   59  53  80 SW10G25   29.74F                  
NEW BEDFORD    CLOUDY    56  53  90 SW20G26   29.76F                  
$$

MAZALL-101800-
CAPE COD AND THE ISLANDS
  
CITY           SKY/WX    TMP DP  RH WIND       PRES   REMARKS
FALMOUTH       CLOUDY    57  55  94 W26G36    29.76F                  
HYANNIS        CLOUDY    55  52  89 SW17      29.77F FOG              
CHATHAM        FOG       50  50 100 SW13G21   29.80F VSB 1/2          
PROVINCETOWN   FAIR      53  52  96 SW20G25   29.74F FOG              
NANTUCKET      CLOUDY    52  50  93 SW16      29.83F FOG              
MARTHAS VNYRD  CLOUDY    55  54  96 SW14G24   29.80F FOG              
$$
 
MAZALL-101800-
CENTRAL AND WESTERN MASSACHUSETTS
  
CITY           SKY/WX    TMP DP  RH WIND       PRES   REMARKS
WORCESTER      LGT RAIN  52  50  93 SW14      29.72F                  
FITCHBURG      CLOUDY    56  48  74 VRB6G20   29.69F                  
ORANGE         CLOUDY    54  49  83 S13       29.71F                  
SPRINGFIELD    CLOUDY    51  51 100 S9        29.72F                  
WESTFIELD      CLOUDY    50  47  89 S8        29.73F                  
NORTH ADAMS    LGT RAIN  47  46  97 CALM      29.71R VSB 3/4          
PITTSFIELD     LGT RAIN  51  47  86 SW6       29.70F                  
$$
 
RIZALL-101800-
RHODE ISLAND
  
CITY           SKY/WX    TMP DP  RH WIND       PRES   REMARKS
PROVIDENCE     PTSUNNY   59  54  83 SW16G22   29.76F                  
NEWPORT        CLOUDY    55  52  89 SW13G29   29.77F FOG              
BLOCK ISLAND   CLOUDY    53  52  96 SW15      29.79F FOG              
SMITHFIELD     PTSUNNY   57  53  86 SW8G21    29.74F                  
WESTERLY       CLOUDY    56  51  84 SW7       29.78F HAZE             
$$
 
CTZALL-101800-
CONNECTICUT
  
CITY           SKY/WX    TMP DP  RH WIND       PRES   REMARKS
BRADLEY INTL   LGT RAIN  49  48  97 S10       29.73F                  
HARTFORD       PTSUNNY   56  52  86 S6        29.74F                  
BRIDGEPORT     CLOUDY    52  49  89 SW7       29.77F                  
DANBURY        CLOUDY    54  50  86 SW12G18   29.77F                  
GROTON         CLOUDY    51  51 100 SW7       29.77F FOG              
NEW HAVEN      CLOUDY    54  51  90 VRB3      29.76F                  
CHESTER        CLOUDY    55  54  94 SW10G17   29.75F FOG              
MERIDEN        CLOUDY    53  51  93 S6        29.75F                  
WILLIMANTIC    CLOUDY    56  52  86 SW7       29.76F                  
OXFORD         CLOUDY    54  51  90 SW6       29.76                   
$$

MEZ002-015-021-024-NHZ003-005-008-011-012-014-VTZ005-008-101800-
NORTHERN NEW ENGLAND
  
CITY           SKY/WX    TMP DP  RH WIND       PRES   REMARKS
PORTLAND ME    CLOUDY    57  49  74 SW7       29.64F                  
BANGOR ME      CLOUDY    53  49  86 S8        29.62F                  
CONCORD NH     CLOUDY    52  48  86 S7        29.67F                  
MANCHESTER NH  CLOUDY    56  50  80 S7        29.67F                  
NASHUA NH      CLOUDY    56  52  86 VRB6      29.69F                  
PORTSMOUTH NH  CLOUDY    56  51  81 SW10      29.66F                  
JAFFREY NH     CLOUDY    50  48  93 S8        29.69F                  
KEENE NH       CLOUDY    51  48  89 S10       29.69F                  
BURLINGTON VT  CLOUDY    50  43  77 S9        29.60                   
MT. WASHINGTON LGT RAIN  34  34 100 W60G76      N/A  VSB 1/16WCI  16  
$$

NYZ052-076-101800-
EASTERN NEW YORK
  
CITY           SKY/WX    TMP DP  RH WIND       PRES   REMARKS
ALBANY         LGT RAIN  51  46  83 S14       29.70S                  
NEW YORK CITY  CLOUDY    58  50  75 SW16      29.79F                  
$$
 
ANZALL-101800-
MARINE OBSERVATIONS
  
STATION/POSITION TIME  TEMP    WIND        PRES    VSBY  WAVE
                       AIR SEA DIR/SP/G                  HT/PER
                 (UTC) (F)     (DEG/KT/KT) (MB)    (MI)  (FT/S)
BOSTON BUOY      1550   54 48  200/ 10/ 12 1006.5          3/11
BUZZARDS BAY     NOT AVBL
NANTUCKET SOUND  1600   47                   N/A
MASS BAY-STELLWA NOT AVBL
ISLE OF SHOALS   NOT AVBL
S OF BLOCK IS    1630      53                N/A          13/11
$$

......................KEY.........................
  SKY/WX - SKY CONDITION/PRESENT WEATHER
  TMP    - TEMPERATURE IN FAHRENHEIT
  DWPT   - DEWPOINT IN FAHRENHEIT
  RH     - RELATIVE HUMIDITY IN PERCENT
  WIND   - DIRECTION AND SPEED IN MPH
  PRES   - MEAN SEA LEVEL PRESSURE IN INCHES OF HG
  WCI    - WIND CHILL INDEX
  VSB    - VISIBILITY IN MILES
  HX     - HEAT INDEX
  TC     - TEMPERATURE IN CELSIUS
  VRB    - VARIABLE WIND DIRECTION
  N/A    - NOT AVAILABLE
  
      

Other recent Regional Weather Roundups

Thu Dec 12, 4:01pm

Thu Dec 12, 3:10pm

Thu Dec 12, 3:00pm

Thu Dec 12, 2:10pm

Thu Dec 12, 2:01pm

Thu Dec 12, 1:10pm

Thu Dec 12, 1:00pm

Thu Dec 12, 12:10pm

Thu Dec 12, 12:00pm

Thu Dec 12, 11:10am

Thu Dec 12, 11:00am

Thu Dec 12, 10:10am

Thu Dec 12, 8:10am

Thu Dec 12, 8:00am

Thu Dec 12, 7:10am

Thu Dec 12, 7:00am

Thu Dec 12, 6:10am

Thu Dec 12, 6:00am

Thu Dec 12, 5:10am

Thu Dec 12, 5:00am

Thu Dec 12, 4:10am

Thu Dec 12, 4:00am

Thu Dec 12, 3:10am

Thu Dec 12, 3:00am

Thu Dec 12, 2:10am

Thu Dec 12, 2:00am

Thu Dec 12, 1:10am

Thu Dec 12, 1:00am

Thu Dec 12, 12:10am

Thu Dec 12, 12:00am

Wed Dec 11, 11:10pm

Wed Dec 11, 11:00pm

Wed Dec 11, 10:10pm

Wed Dec 11, 10:00pm

Wed Dec 11, 9:10pm

Wed Dec 11, 9:00pm

Wed Dec 11, 8:10pm

Wed Dec 11, 8:00pm

Wed Dec 11, 7:10pm

Wed Dec 11, 7:00pm

Wed Dec 11, 6:10pm

Wed Dec 11, 6:00pm

Wed Dec 11, 5:10pm

Wed Dec 11, 5:01pm

Wed Dec 11, 4:10pm

Wed Dec 11, 4:00pm

Wed Dec 11, 3:10pm

Wed Dec 11, 3:01pm

Wed Dec 11, 2:10pm

Wed Dec 11, 2:00pm

Wed Dec 11, 1:10pm

Wed Dec 11, 1:00pm

Wed Dec 11, 12:10pm

Wed Dec 11, 12:00pm

Wed Dec 11, 11:10am

Wed Dec 11, 11:00am

Wed Dec 11, 10:10am

Wed Dec 11, 10:00am

Wed Dec 11, 9:10am

Wed Dec 11, 9:00am

Wed Dec 11, 8:10am

Wed Dec 11, 8:00am

Wed Dec 11, 7:10am

Wed Dec 11, 7:00am

Wed Dec 11, 6:10am

Wed Dec 11, 6:00am

Wed Dec 11, 5:10am

Wed Dec 11, 5:00am

Wed Dec 11, 4:10am

Wed Dec 11, 4:00am

Wed Dec 11, 3:10am

Wed Dec 11, 3:01am

Wed Dec 11, 2:10am

Wed Dec 11, 2:01am

Wed Dec 11, 1:10am

Wed Dec 11, 1:00am

Wed Dec 11, 12:10am

Wed Dec 11, 12:00am

Tue Dec 10, 11:10pm

Tue Dec 10, 11:00pm

Tue Dec 10, 10:10pm

Tue Dec 10, 10:00pm

Tue Dec 10, 9:10pm

Tue Dec 10, 9:01pm

Tue Dec 10, 8:10pm

Tue Dec 10, 8:00pm

Tue Dec 10, 7:10pm

Tue Dec 10, 7:01pm

Tue Dec 10, 6:10pm

Tue Dec 10, 6:01pm

Tue Dec 10, 5:10pm

Tue Dec 10, 5:00pm

Tue Dec 10, 4:10pm

Tue Dec 10, 4:01pm

Tue Dec 10, 3:10pm

Tue Dec 10, 3:01pm

Tue Dec 10, 2:10pm

Tue Dec 10, 2:01pm

Tue Dec 10, 1:10pm

Tue Dec 10, 1:00pm

Tue Dec 10, 12:00pm

Tue Dec 10, 11:10am

Tue Dec 10, 11:00am

Tue Dec 10, 10:10am

Tue Dec 10, 10:00am

Tue Dec 10, 9:10am

Tue Dec 10, 9:01am

Tue Dec 10, 8:10am

Tue Dec 10, 8:00am

Tue Dec 10, 7:10am

Tue Dec 10, 7:00am

Tue Dec 10, 6:10am

Tue Dec 10, 6:00am

Tue Dec 10, 5:10am

Tue Dec 10, 5:00am

Tue Dec 10, 4:10am

Tue Dec 10, 4:00am

Tue Dec 10, 3:10am

Tue Dec 10, 3:00am

Tue Dec 10, 2:10am

Tue Dec 10, 2:01am

Tue Dec 10, 1:10am

Tue Dec 10, 1:00am

Tue Dec 10, 12:10am

Tue Dec 10, 12:01am

Mon Dec 9, 11:10pm

Mon Dec 9, 11:01pm

Mon Dec 9, 10:10pm

Mon Dec 9, 10:00pm

Mon Dec 9, 9:10pm

Mon Dec 9, 9:01pm

Mon Dec 9, 8:10pm

Mon Dec 9, 8:01pm

Mon Dec 9, 7:10pm

Mon Dec 9, 7:00pm

Mon Dec 9, 6:10pm

Mon Dec 9, 6:00pm

Mon Dec 9, 5:10pm

Mon Dec 9, 5:01pm

Mon Dec 9, 4:10pm

Meta data:

ID: 649eeb7c-586b-412b-9833-ea732eb0a22e
Link: https://api.weather.gov/products/649eeb7c-586b-412b-9833-ea732eb0a22e